Location: ??????
(30.0081°N, 31.2109°E)
Time: 06:26:24
(UTC+00:00)

Daily predictions for brighter satellites

Satellite Brightness Start Highest point End
(mag) Time Altitude Azimuth Time Altitude Azimuth Time Altitude Azimuth
Cosmos 1980 Rocket 2.2 15:56:48 10° S 16:02:22 65° ESE 16:07:57 10° NNE
Cosmos 1975 3.6 16:02:03 10° SSW 16:06:02 58° W 16:10:01 10° N
SEDSat Delta rocket 3.9 16:00:46 10° WSW 16:06:42 83° SSE 16:13:20 10° E
Cosmos 2369 3.7 16:04:17 10° SSW 16:10:01 84° ESE 16:15:45 10° NNE
Cosmos 2297 Rocket 2.3 16:04:36 10° NNW 16:10:18 88° WSW 16:15:56 10° SSE
CZ-4 R/B 3.1 16:09:45 10° ESE 16:12:07 15° ENE 16:14:30 10° NE
Cosmos 1707 2.8 16:09:56 10° N 16:13:44 82° W 16:17:32 10° S
Cosmos 1626 2.0 16:12:24 10° N 16:15:58 59° E 16:19:31 10° SSE
OAO 2 Rocket 3.3 16:11:27 10° WSW 16:16:22 84° NNW 16:21:18 10° ENE
Cosmos 1763 Rocket 3.6 16:11:33 10° N 16:16:29 51° ENE 16:21:26 10° SSE
CZ-4B DEB 4.2 16:11:13 10° SSE 16:16:37 75° ENE 16:22:04 10° N
COSMO-SKYMED 1 3.5 16:13:04 10° N 16:17:17 52° WNW 16:21:29 10° SSW
Cosmos 2278 4.0 16:12:08 10° S 16:17:29 44° ESE 16:22:51 10° NE
Okean 2 3.7 16:13:37 10° N 16:17:35 43° E 16:21:30 10° SSE
Meteor 2-10 4.4 16:14:20 10° SSE 16:19:51 52° E 16:25:16 10° NNE
SL-16 R/B 3.4 16:17:12 10° SE 16:21:06 19° E 16:24:59 10° ENE
CZ-4 R/B 4.3 16:17:21 10° SSE 16:21:25 71° ENE 16:25:31 10° N
Cosmos 1741 Rocket 4.0 16:24:17 10° SSW 16:29:34 88° ESE 16:34:52 10° NNE
BREEZE-M DEB (TANK) 3.5 16:29:09 10° S 16:30:55 19° SE 16:31:19 19° ESE
Cosmos 1437 Rocket 4.1 16:30:58 10° SE 16:35:55 12° NE 16:36:16 10° NE
Nadezhda 4 Rocket 4.3 16:29:01 10° SSE 16:34:57 45° E 16:40:55 10° NNE
Meteor 2-21 4.4 16:32:16 10° S 16:38:11 60° E 16:44:06 10° NNE
Okean O Rocket 2.0 16:35:43 10° SE 16:39:44 39° ENE 16:43:47 10° N
Cosmos 1809 Rocket 4.4 16:34:22 10° S 16:40:26 81° E 16:46:31 10° N
Cosmos 1908 Rocket 4.2 16:36:42 10° SSE 16:40:34 32° E 16:44:26 10° NNE
ARGOS Delta rocket 4.2 16:35:39 10° N 16:40:52 76° WNW 16:45:46 10° SSW
IRIDIUM 103 4.5 16:36:39 10° SSE 16:41:39 50° E 16:46:41 10° NNE
Cosmos 2219 3.3 16:42:15 10° NNW 16:48:01 82° WSW 16:53:45 10° SSE
Meteor 1-15 Rocket 4.4 16:45:12 10° SSE 16:50:29 45° E 16:55:45 10° NNE
COBE Rocket 3.8 16:48:42 10° SSE 16:53:41 87° E 16:58:32 10° N
YAOGAN 1 2.4 16:49:31 10° SSE 16:53:49 76° ENE 16:58:08 10° N
GENESIS II 4.4 16:49:58 10° NNW 16:54:02 77° WSW 16:57:28 14° SSE
USA 267 3.2 16:48:42 14° SE 16:54:29 75° NE 17:01:02 10° NW
Landsat 5 3.9 16:50:31 10° NNE 16:54:47 42° E 16:58:56 10° S
CZ-2C R/B 0.8 16:51:42 10° WNW 16:54:54 60° NNE 16:55:40 44° ENE
Cosmos 2263 Rocket 3.0 16:50:39 10° N 16:55:36 30° ENE 16:56:54 27° E
Cosmos 1726 2.5 16:55:42 10° SSW 16:59:17 63° W 17:02:54 10° N
IRIDIUM 106 4.2 16:54:43 10° S 16:59:54 79° E 17:05:07 10° N
SL-14 R/B 3.1 16:56:27 10° N 17:00:24 71° E 17:04:23 10° SSE
Cosmos 1674 Rocket 3.5 16:58:54 10° N 17:03:16 63° E 17:06:51 15° SSE
Cosmos 2082 3.6 17:01:15 10° NNW 17:06:59 74° ENE 17:11:15 18° SSE
Cosmos 1766 3.5 17:04:37 10° SSW 17:08:28 67° W 17:12:22 10° N
Cosmos 1092 Rocket 4.1 17:05:50 10° SSE 17:11:53 50° E 17:17:56 10° NNE
Cosmos 968 Rocket 3.5 17:19:34 10° SSW 17:24:49 85° WNW 17:30:05 10° NNE
Cosmos 2237 4.1 17:20:45 10° S 17:26:19 58° ESE 17:27:34 48° ENE
ATLAS 5 CENTAUR R/B 3.7 16:57:39 10° WSW 17:30:27 45° S 17:34:31 32° SE
Cosmos 1378 Rocket 4.2 17:28:11 10° NNW 17:32:26 54° W 17:35:20 19° SSW
Cosmos 2322 Rocket 2.0 17:31:42 10° S 17:37:20 72° ESE 17:37:35 70° E
USA 229 DEB 4.1 17:29:45 10° NNW 17:37:25 76° WSW 17:42:20 26° SSE
USA 229 4.1 17:29:51 10° NNW 17:37:31 77° WSW 17:42:21 27° SSE
Hubble Space Telescope 1.7 17:34:15 10° W 17:37:20 42° SW 17:37:20 42° SW
CSL-04 Rocket 3.9 17:40:02 50° NNE 17:40:02 50° NNE 17:44:15 10° N
CZ-4 R/B 3.2 17:43:52 15° SSW 17:46:42 31° W 17:50:26 10° NW
Cosmos 1627 Rocket 4.3 17:41:50 10° S 17:47:58 88° W 17:54:06 10° N
Cosmos 841 Rocket 4.3 17:45:19 10° NNW 17:50:16 48° WSW 17:51:58 34° SSW
SEDSat Delta rocket 3.9 17:47:05 10° W 17:53:29 79° N 17:53:47 77° NNE
OAO 2 Rocket 4.4 17:56:38 10° WNW 18:00:16 40° NW 18:00:16 40° NW
SL-16 R/B 3.3 17:59:26 10° SW 18:04:46 42° WNW 18:10:08 10° N
Cosmos 2285 Rocket 4.5 18:15:41 10° NNW 18:20:53 56° NW 18:20:53 56° NW
BREEZE-M TANK 4.3 18:18:02 10° WSW 18:24:52 42° WNW 18:24:52 42° WNW
Cosmos 2263 Rocket 4.0 18:34:35 10° NW 18:38:39 27° W 18:38:39 27° W
